Regional Weather Roundup
Issued by NWS

Home | Current Version | Previous Version | Text Only | Print | Product List | Glossary Off
Versions: 1 2 3 4 5 6 7 8 9 10 11 12 13 14 15 16 17 18 19 20 21 22 23 24 25 26 27 28 29 30 31 32 33 34 35 36 37 38 39 40 41 42 43 44 45 46 47 48 49 50

000
ASUS43 KBIS 230502
RWRND

NORTH DAKOTA REGIONAL WEATHER ROUNDUP
NATIONAL WEATHER SERVICE BISMARCK ND
1100 PM CST SUN JAN 22 2017

NOTE: "FAIR" INDICATES FEW OR NO CLOUDS BELOW 12,000 FEET WITH NO
SIGNIFICANT WEATHER AND/OR OBSTRUCTIONS TO VISIBILITY.


NDZ001>003-009>011-017-230600-
NORTHWEST NORTH DAKOTA

CITY           SKY/WX    TMP DP  RH WIND       PRES   REMARKS
WILLISTON      CLOUDY    28  23  81 W5        29.80S
MINOT          CLOUDY    30  26  85 W10       29.77S
MINOT AFB      MOCLDY    29  25  88 W12       29.76S WCI  19
$$

NDZ018>021-031>035-040>046-230600-
SOUTHWEST NORTH DAKOTA

CITY           SKY/WX    TMP DP  RH WIND       PRES   REMARKS
BISMARCK       CLOUDY    32  25  75 W10       29.83R
DICKINSON      CLOUDY    25  21  85 NW12      29.77S WCI  14
GARRISON         N/A     28  23  81 NW8       29.78F WCI  20
HETTINGER ARPT CLOUDY    24  22  91 W9        29.82S WCI  14
$$

NDZ004>008-012>016-024-026-027-054-230600-
NORTHEAST NORTH DAKOTA

CITY           SKY/WX    TMP DP  RH WIND       PRES   REMARKS
GRAND FORKS    CLOUDY    33  28  81 W5        29.77S
GRND FRKS AFB  CLOUDY    32  28  83 NW3       29.77S
DEVILS LAKE    CLOUDY    30  28  92 W15       29.76S WCI  19
$$

NDZ022-023-025-028>030-036>039-047>053-230600-
SOUTHEAST NORTH DAKOTA

CITY           SKY/WX    TMP DP  RH WIND       PRES   REMARKS
FARGO          CLOUDY    34  29  82 W7        29.79S
JAMESTOWN      CLOUDY    32  27  81 NW13      29.79R
$$




USA.gov is the U.S. government's official web portal to all federal, state and local government web resources and services.